Location: Gälforsberget
(66.6500°N, 22.4167°E)
Time: 15:26:45
(UTC+00:00)

Cosmos 2150 Rocket - Pass Details

Date: 11 April 2026
Orbit: 745 x 804 km, 74.0° (Epoch: 17 May)

Event Time Altitude Azimuth Distance (km) Brightness Sun altitude
Exits shadow 22:54:14 15° 224° (SW) 1,924 5.6 -14.6°
Maximum altitude 22:58:29 87° 312° (NW) 767 4.0 -14.6°
Drops below altitude 10° 23:03:45 10° 44° (NE) 2,313 7.3 -14.5°
Sets 23:06:09 0° 45° (NE) 3,251 8.2 -14.5°
